Time,TemperatureF,DewpointF,PressureIn,WindDirection,WindDirectionDegrees,WindSpeedMPH,WindSpeedGustMPH,Humidity,HourlyPrecipIn,Conditions,Clouds,dailyrainin,SoftwareType,DateUTC
2013-09-19 00:12:00,76.4,72.0,29.99,NNW,344,0.0,0.0,87,0.00,,,0.00,weatherlink.com 1.10,2013-09-19 04:12:00,
2013-09-19 00:27:00,76.4,72.0,29.99,NNW,344,0.0,0.0,87,0.00,,,0.00,weatherlink.com 1.10,2013-09-19 04:27:00,
2013-09-19 00:42:00,76.4,72.0,29.99,NNW,344,5.0,6.0,87,0.00,,,0.00,weatherlink.com 1.10,2013-09-19 04:42:00,
2013-09-19 00:59:00,76.4,73.0,29.99,North,349,0.0,0.0,88,0.00,,,0.00,weatherlink.com 1.10,2013-09-19 04:59:00,
2013-09-19 01:12:00,76.4,73.0,29.98,North,349,0.0,0.0,88,0.00,,,0.00,weatherlink.com 1.10,2013-09-19 05:12:00,
2013-09-19 01:27:00,76.2,73.0,29.98,North,349,0.0,0.0,89,0.00,,,0.00,weatherlink.com 1.10,2013-09-19 05:27:00,
2013-09-19 01:42:00,76.2,73.0,29.98,North,349,0.0,5.0,89,0.00,,,0.00,weatherlink.com 1.10,2013-09-19 05:42:00,
2013-09-19 01:57:00,76.2,73.0,29.97,North,349,0.0,0.0,90,0.00,,,0.00,weatherlink.com 1.10,2013-09-19 05:57:00,
2013-09-19 02:12:00,76.2,73.0,29.96,North,349,0.0,0.0,90,0.00,,,0.00,weatherlink.com 1.10,2013-09-19 06:12:00,
2013-09-19 02:27:00,76.2,73.0,29.96,North,349,0.0,0.0,90,0.00,,,0.00,weatherlink.com 1.10,2013-09-19 06:27:00,
2013-09-19 02:42:00,76.2,73.0,29.96,North,349,0.0,0.0,90,0.00,,,0.00,weatherlink.com 1.10,2013-09-19 06:42:00,
2013-09-19 02:57:00,76.0,73.0,29.95,North,349,0.0,5.0,91,0.00,,,0.00,weatherlink.com 1.10,2013-09-19 06:57:00,
2013-09-19 03:12:00,75.9,73.0,29.95,North,349,0.0,1.0,91,0.00,,,0.00,weatherlink.com 1.10,2013-09-19 07:12:00,
2013-09-19 03:27:00,75.7,73.0,29.95,NNW,344,5.0,6.0,92,0.00,,,0.00,weatherlink.com 1.10,2013-09-19 07:27:00,
2013-09-19 03:42:00,75.7,73.0,29.94,NNW,344,0.0,4.0,92,0.00,,,0.00,weatherlink.com 1.10,2013-09-19 07:42:00,
2013-09-19 03:57:00,75.5,73.0,29.94,NNW,339,0.0,5.0,92,0.00,,,0.00,weatherlink.com 1.10,2013-09-19 07:57:00,
2013-09-19 04:12:00,75.5,73.0,29.93,North,349,2.0,5.0,92,0.00,,,0.00,weatherlink.com 1.10,2013-09-19 08:12:00,
2013-09-19 04:27:00,75.3,73.0,29.93,North,349,0.0,6.0,92,0.00,,,0.00,weatherlink.com 1.10,2013-09-19 08:27:00,
2013-09-19 04:42:00,75.3,73.0,29.93,North,349,0.0,1.0,93,0.00,,,0.00,weatherlink.com 1.10,2013-09-19 08:42:00,
2013-09-19 04:57:00,75.3,73.0,29.92,North,349,0.0,0.0,93,0.00,,,0.00,weatherlink.com 1.10,2013-09-19 08:57:00,
2013-09-19 05:12:00,75.3,73.0,29.92,North,349,0.0,0.0,93,0.00,,,0.00,weatherlink.com 1.10,2013-09-19 09:12:00,
2013-09-19 05:27:00,75.3,73.0,29.93,North,349,0.0,1.0,93,0.00,,,0.00,weatherlink.com 1.10,2013-09-19 09:27:00,
2013-09-19 05:42:00,75.3,73.0,29.93,North,349,0.0,1.0,93,0.00,,,0.00,weatherlink.com 1.10,2013-09-19 09:42:00,
2013-09-19 05:57:00,75.5,74.0,29.93,North,349,0.0,0.0,94,0.00,,,0.00,weatherlink.com 1.10,2013-09-19 09:57:00,
2013-09-19 06:12:00,75.7,74.0,29.94,North,349,0.0,0.0,94,0.00,,,0.00,weatherlink.com 1.10,2013-09-19 10:12:00,
2013-09-19 06:27:00,75.7,74.0,29.94,North,349,0.0,0.0,94,0.00,,,0.00,weatherlink.com 1.10,2013-09-19 10:27:00,
2013-09-19 06:42:00,75.7,74.0,29.94,North,349,0.0,0.0,94,0.00,,,0.00,weatherlink.com 1.10,2013-09-19 10:42:00,
2013-09-19 06:57:00,75.7,74.0,29.95,North,349,0.0,0.0,94,0.00,,,0.00,weatherlink.com 1.10,2013-09-19 10:57:00,
2013-09-19 07:12:00,75.9,74.0,29.95,North,349,0.0,1.0,94,0.00,,,0.00,weatherlink.com 1.10,2013-09-19 11:12:00,
2013-09-19 07:27:00,76.0,74.0,29.95,North,349,0.0,0.0,94,0.00,,,0.00,weatherlink.com 1.10,2013-09-19 11:27:00,
2013-09-19 07:42:00,76.4,75.0,29.95,North,349,0.0,0.0,94,0.00,,,0.00,weatherlink.com 1.10,2013-09-19 11:42:00,
2013-09-19 07:57:00,77.1,75.0,29.96,North,349,0.0,0.0,94,0.00,,,0.00,weatherlink.com 1.10,2013-09-19 11:57:00,
2013-09-19 08:12:00,77.5,75.0,29.96,North,349,0.0,0.0,93,0.00,,,0.00,weatherlink.com 1.10,2013-09-19 12:12:00,
2013-09-19 08:27:00,78.0,76.0,29.96,North,349,0.0,0.0,92,0.00,,,0.00,weatherlink.com 1.10,2013-09-19 12:27:00,
2013-09-19 08:43:00,79.1,76.0,29.98,North,349,0.0,0.0,91,0.00,,,0.00,weatherlink.com 1.10,2013-09-19 12:43:00,
2013-09-19 08:58:00,81.3,77.0,29.98,East,82,0.0,0.0,86,0.00,,,0.00,weatherlink.com 1.10,2013-09-19 12:58:00,
2013-09-19 09:13:00,81.9,75.0,29.98,NNW,332,0.0,0.0,80,0.00,,,0.00,weatherlink.com 1.10,2013-09-19 13:13:00,
2013-09-19 09:28:00,82.7,76.0,29.98,NNW,333,0.0,1.0,79,0.00,,,0.00,weatherlink.com 1.10,2013-09-19 13:28:00,
2013-09-19 09:43:00,84.2,76.0,29.99,NNE,23,5.0,6.0,76,0.00,,,0.00,weatherlink.com 1.10,2013-09-19 13:43:00,
2013-09-19 09:58:00,83.7,75.0,29.99,NNE,28,0.0,9.0,74,0.00,,,0.00,weatherlink.com 1.10,2013-09-19 13:58:00,
2013-09-19 10:13:00,84.8,74.0,29.99,East,82,2.0,14.0,69,0.00,,,0.00,weatherlink.com 1.10,2013-09-19 14:13:00,
2013-09-19 10:28:00,84.8,74.0,30.00,ENE,76,0.0,11.0,70,0.00,,,0.00,weatherlink.com 1.10,2013-09-19 14:28:00,
2013-09-19 10:43:00,85.0,75.0,30.00,East,79,6.0,14.0,72,0.00,,,0.00,weatherlink.com 1.10,2013-09-19 14:43:00,
2013-09-19 10:58:00,84.8,75.0,30.00,ENE,76,7.0,11.0,72,0.00,,,0.00,weatherlink.com 1.10,2013-09-19 14:58:00,
2013-09-19 11:13:00,85.4,74.0,30.00,East,92,1.0,14.0,69,0.00,,,0.00,weatherlink.com 1.10,2013-09-19 15:13:00,
2013-09-19 11:28:00,85.2,74.0,30.00,NNE,25,3.0,13.0,70,0.00,,,0.00,weatherlink.com 1.10,2013-09-19 15:28:00,
2013-09-19 11:43:00,85.2,75.0,30.00,East,95,4.0,15.0,71,0.00,,,0.00,weatherlink.com 1.10,2013-09-19 15:43:00,
2013-09-19 11:58:00,85.2,75.0,30.00,NE,52,0.0,17.0,71,0.00,,,0.00,weatherlink.com 1.10,2013-09-19 15:58:00,
2013-09-19 12:13:00,85.6,75.0,30.00,East,95,5.0,12.0,71,0.00,,,0.00,weatherlink.com 1.10,2013-09-19 16:13:00,
2013-09-19 12:28:00,85.0,75.0,30.00,East,88,6.0,13.0,71,0.00,,,0.00,weatherlink.com 1.10,2013-09-19 16:28:00,
2013-09-19 12:43:00,85.4,73.0,29.99,East,84,1.0,14.0,67,0.00,,,0.00,weatherlink.com 1.10,2013-09-19 16:43:00,
2013-09-19 12:58:00,85.6,74.0,29.99,East,95,4.0,12.0,69,0.00,,,0.00,weatherlink.com 1.10,2013-09-19 16:58:00,
2013-09-19 13:13:00,85.4,75.0,29.98,NNE,19,3.0,15.0,71,0.00,,,0.00,weatherlink.com 1.10,2013-09-19 17:13:00,
2013-09-19 13:28:00,85.8,75.0,29.98,SE,130,4.0,11.0,70,0.00,,,0.00,weatherlink.com 1.10,2013-09-19 17:28:00,
2013-09-19 13:43:00,85.4,75.0,29.98,ENE,63,4.0,17.0,72,0.00,,,0.00,weatherlink.com 1.10,2013-09-19 17:43:00,
2013-09-19 13:58:00,85.8,75.0,29.97,SW,235,3.0,17.0,71,0.00,,,0.00,weatherlink.com 1.10,2013-09-19 17:58:00,
2013-09-19 14:13:00,85.4,75.0,29.96,ENE,73,3.0,16.0,72,0.00,,,0.00,weatherlink.com 1.10,2013-09-19 18:13:00,
2013-09-19 14:28:00,85.0,75.0,29.96,NNE,17,0.0,16.0,71,0.00,,,0.00,weatherlink.com 1.10,2013-09-19 18:28:00,
2013-09-19 14:43:00,85.4,74.0,29.96,North,10,2.0,10.0,69,0.00,,,0.00,weatherlink.com 1.10,2013-09-19 18:43:00,
2013-09-19 14:58:00,85.2,75.0,29.95,ENE,68,11.0,21.0,71,0.00,,,0.00,weatherlink.com 1.10,2013-09-19 18:58:00,
2013-09-19 15:13:00,85.2,75.0,29.95,ENE,69,3.0,14.0,72,0.00,,,0.00,weatherlink.com 1.10,2013-09-19 19:13:00,
2013-09-19 15:28:00,84.8,75.0,29.95,East,84,0.0,18.0,73,0.00,,,0.00,weatherlink.com 1.10,2013-09-19 19:28:00,
2013-09-19 15:43:00,84.2,75.0,29.95,ENE,59,7.0,15.0,74,0.00,,,0.00,weatherlink.com 1.10,2013-09-19 19:43:00,
2013-09-19 15:58:00,84.0,75.0,29.95,ENE,64,0.0,15.0,73,0.00,,,0.00,weatherlink.com 1.10,2013-09-19 19:58:00,
2013-09-19 16:13:00,83.9,75.0,29.94,East,99,3.0,19.0,75,0.00,,,0.00,weatherlink.com 1.10,2013-09-19 20:13:00,
2013-09-19 16:28:00,83.5,74.0,29.95,NE,56,0.0,15.0,74,0.00,,,0.00,weatherlink.com 1.10,2013-09-19 20:28:00,
2013-09-19 16:43:00,83.3,74.0,29.95,NE,40,0.0,17.0,74,0.00,,,0.00,weatherlink.com 1.10,2013-09-19 20:43:00,
2013-09-19 16:58:00,83.3,74.0,29.95,NNE,22,0.0,7.0,73,0.00,,,0.00,weatherlink.com 1.10,2013-09-19 20:58:00,
2013-09-19 17:13:00,83.5,74.0,29.95,ENE,65,0.0,14.0,73,0.00,,,0.00,weatherlink.com 1.10,2013-09-19 21:13:00,
2013-09-19 17:28:00,83.5,74.0,29.95,East,89,0.0,13.0,74,0.00,,,0.00,weatherlink.com 1.10,2013-09-19 21:28:00,
2013-09-19 17:43:00,83.5,75.0,29.95,ENE,72,5.0,18.0,76,0.00,,,0.00,weatherlink.com 1.10,2013-09-19 21:43:00,
2013-09-19 17:58:00,83.9,74.0,29.96,East,85,0.0,16.0,73,0.00,,,0.00,weatherlink.com 1.10,2013-09-19 21:58:00,
2013-09-19 18:13:00,83.9,75.0,29.96,ESE,106,8.0,22.0,75,0.00,,,0.00,weatherlink.com 1.10,2013-09-19 22:13:00,
2013-09-19 18:28:00,83.3,74.0,29.96,ENE,78,1.0,15.0,74,0.00,,,0.00,weatherlink.com 1.10,2013-09-19 22:28:00,
2013-09-19 18:43:00,83.1,74.0,29.96,East,82,0.0,16.0,73,0.00,,,0.00,weatherlink.com 1.10,2013-09-19 22:43:00,
2013-09-19 18:58:00,83.1,74.0,29.96,NE,35,8.0,17.0,74,0.00,,,0.00,weatherlink.com 1.10,2013-09-19 22:58:00,
2013-09-19 19:13:00,81.5,74.0,29.96,NE,41,0.0,18.0,77,0.00,,,0.00,weatherlink.com 1.10,2013-09-19 23:13:00,
2013-09-19 19:28:00,81.5,74.0,29.97,NNW,333,3.0,19.0,77,0.00,,,0.00,weatherlink.com 1.10,2013-09-19 23:28:00,
2013-09-19 19:43:00,81.7,74.0,29.97,ENE,77,0.0,14.0,78,0.00,,,0.00,weatherlink.com 1.10,2013-09-19 23:43:00,
2013-09-19 19:58:00,81.5,74.0,29.96,ENE,60,10.0,19.0,78,0.00,,,0.00,weatherlink.com 1.10,2013-09-19 23:58:00,
2013-09-19 20:13:00,81.1,73.0,29.97,SSW,193,4.0,22.0,75,0.00,,,0.00,weatherlink.com 1.10,2013-09-20 00:13:00,
2013-09-19 20:28:00,81.1,73.0,29.97,ENE,69,0.0,9.0,77,0.00,,,0.00,weatherlink.com 1.10,2013-09-20 00:28:00,
2013-09-19 20:43:00,81.1,74.0,29.98,ENE,61,0.0,9.0,78,0.00,,,0.00,weatherlink.com 1.10,2013-09-20 00:43:00,
2013-09-19 20:58:00,80.0,75.0,29.98,ESE,104,0.0,18.0,84,0.00,,,0.00,weatherlink.com 1.10,2013-09-20 00:58:00,
2013-09-19 21:13:00,78.0,74.0,29.99,East,97,10.0,23.0,86,0.00,,,0.00,weatherlink.com 1.10,2013-09-20 01:13:00,
2013-09-19 21:30:00,77.3,74.0,29.99,East,85,3.0,19.0,90,0.02,,,0.02,weatherlink.com 1.10,2013-09-20 01:30:00,
2013-09-19 21:43:00,77.3,75.0,30.00,East,89,0.0,0.0,91,0.08,,,0.08,weatherlink.com 1.10,2013-09-20 01:43:00,
2013-09-19 21:58:00,77.5,75.0,30.00,East,93,0.0,0.0,92,0.08,,,0.08,weatherlink.com 1.10,2013-09-20 01:58:00,
2013-09-19 22:13:00,77.8,76.0,30.00,East,93,0.0,0.0,93,0.08,,,0.08,weatherlink.com 1.10,2013-09-20 02:13:00,
2013-09-19 22:28:00,78.0,75.0,30.00,ENE,69,9.0,10.0,91,0.06,,,0.08,weatherlink.com 1.10,2013-09-20 02:28:00,
2013-09-19 22:43:00,79.3,75.0,30.00,ENE,71,0.0,4.0,85,0.00,,,0.08,weatherlink.com 1.10,2013-09-20 02:43:00,
2013-09-19 22:58:00,79.7,73.0,30.00,NNE,33,0.0,8.0,80,0.00,,,0.08,weatherlink.com 1.10,2013-09-20 02:58:00,
2013-09-19 23:14:00,80.6,73.0,30.00,East,92,0.0,9.0,77,0.00,,,0.08,weatherlink.com 1.10,2013-09-20 03:14:00,
2013-09-19 23:28:00,80.6,72.0,30.00,ENE,70,0.0,10.0,76,0.00,,,0.08,weatherlink.com 1.10,2013-09-20 03:28:00,
2013-09-19 23:43:00,80.8,71.0,29.99,ENE,65,4.0,13.0,73,0.00,,,0.08,weatherlink.com 1.10,2013-09-20 03:43:00,
2013-09-19 23:58:00,80.8,71.0,29.99,ENE,67,0.0,7.0,72,0.00,,,0.08,weatherlink.com 1.10,2013-09-20 03:58:00,